DELTA 1 DEB, 18470

Orbit data source: Space-Track

DELTA 1 DEB, 18470 is space debris in SSO originally from a launch on Tue, 06 Nov 1973 UTC launched from the Air Force Western Test Range (AFWTR). Debris objects in space refer to the collection of defunct objects orbiting the Earth. Examples of debris include non-operational satellites, rocket bodies, and fragments generated from explosions, collisions, or faulty payload assembly.

Loading next visibility...
Identifier
18470, 1973-086GU
Orbit
SSO
Country
Flag of USUS
Related business
Manufacturer
Unknown
Mission
Spacecraft
Bus & Motor
Unknown
Mass
Unknown
Launch date (UTC)
1973-11-06 (53 years ago)
Launch vehicle
Unknown
Launch site
Air Force Western Test Range (AFWTR)
Object type
Payload
Rocket body
Debris
Shape & HBR
Unknown shape, 0.1 m
Radar Cross Section
Medium (>0.1 m² and <1 m²)

Expand to show TLE details & history
Last TLE update: 1 day ago

TLE from 1 day ago
0 DELTA 1 DEB
1 18470U 73086GU  26206.38310478 -.00000229  00000-0 -20604-2 0  9993
2 18470 101.7896 356.6179 0180688  25.2716   1.7431 12.06646596824011
Epoch: 2026-07-25T09:11Z
TLE epoch observation values (Epoch: 2026-07-25T09:11:40.252Z)
Latitude
26.49823°
Longitude
-90.33942°
Altitude
1,509.086 km
Speed
7.176 km/s
True Right ascension
23h 22m 41s
True Declination
26° 22' 27"
Sunlit
Object was in daylight at epoch
Visualization orbit readout
Latitude
Unknown
Longitude
Unknown
Altitude
Unknown
Speed
Unknown
Apparent Right ascension
Unknown
Apparent Declination
Unknown
Sunlit
N/A
Visualization observer readout
Local Sidereal Time
01:15:08
Azimuth
Unknown
Elevation
Unknown
Doppler factor
Unknown
Orbital elements
Apogee altitude
1,793.882 km
Perigee altitude
1,503.806 km
Semi-major axis
8,026.981 km
Eccentricity
0.01807
Inclination
101.7896°
RAAN
356.6179°
Arg. of periapsis
25.2716°
True anomaly
1.80754°
Mean anomaly
1.7431°
Eccentric anomaly
1.77517°
Mean motion
3.01797 °/min
Orbital period
119.29 mins
BSTAR
-0.0020604
Loading maneuver chart data...
Computing Atmospheric mass density...
Loading historical data...
Loading historical data...
Loading historical data...
Loading historical data...
Loading historical data...
Loading historical data...
Loading historical data...

Documentation

Showing up to 5 results
|